Time,TemperatureF,DewpointF,PressureIn,WindDirection,WindDirectionDegrees,WindSpeedMPH,WindSpeedGustMPH,Humidity,HourlyPrecipIn,Conditions,Clouds,dailyrainin,SoftwareType,DateUTC
2013-09-20 00:00:00,66.1,60.4,30.10,NW,315,0.0,0.0,82,0.00,,,0.00,WUHU216HW,2013-09-20 04:00:00,
2013-09-20 00:01:00,66.1,60.4,30.10,NW,315,0.0,0.0,82,0.00,,,0.00,WUHU216HW,2013-09-20 04:01:00,
2013-09-20 00:02:00,66.1,60.4,30.10,NW,315,0.0,0.0,82,0.00,,,0.00,WUHU216HW,2013-09-20 04:02:00,
2013-09-20 00:07:00,66.1,60.4,30.10,NW,315,0.0,0.0,82,0.00,,,0.00,WUHU216HW,2013-09-20 04:07:00,
2013-09-20 00:30:00,65.9,60.2,30.10,NW,315,0.0,0.0,82,0.00,,,0.00,WUHU216HW,2013-09-20 04:30:00,
2013-09-20 00:35:00,65.9,60.2,30.10,NW,315,0.0,0.0,82,0.00,,,0.00,WUHU216HW,2013-09-20 04:35:00,
2013-09-20 01:00:00,65.9,60.6,30.11,NW,315,0.0,0.0,83,0.00,,,0.00,WUHU216HW,2013-09-20 05:00:00,
2013-09-20 01:05:00,65.9,60.6,30.11,NW,315,0.0,0.0,83,0.00,,,0.00,WUHU216HW,2013-09-20 05:05:00,
2013-09-20 01:30:00,65.5,60.6,30.11,SE,135,0.0,0.0,84,0.01,,,0.00,WUHU216HW,2013-09-20 05:30:00,
2013-09-20 01:35:00,65.5,60.6,30.11,SE,135,0.0,0.0,84,0.01,,,0.00,WUHU216HW,2013-09-20 05:35:00,
2013-09-20 02:00:00,65.2,60.6,30.12,North,0,0.0,0.0,85,0.02,,,0.01,WUHU216HW,2013-09-20 06:00:00,
2013-09-20 02:05:00,65.2,60.6,30.12,North,0,0.0,0.0,85,0.02,,,0.01,WUHU216HW,2013-09-20 06:05:00,
2013-09-20 02:30:00,65.0,60.7,30.10,West,270,0.0,0.0,86,0.04,,,0.02,WUHU216HW,2013-09-20 06:30:00,
2013-09-20 02:35:00,65.0,60.7,30.10,West,270,0.0,0.0,86,0.04,,,0.02,WUHU216HW,2013-09-20 06:35:00,
2013-09-20 03:00:00,64.8,60.2,30.10,West,270,0.0,0.0,85,0.03,,,0.06,WUHU216HW,2013-09-20 07:00:00,
2013-09-20 03:05:00,64.8,60.2,30.10,West,270,0.0,0.0,85,0.03,,,0.06,WUHU216HW,2013-09-20 07:05:00,
2013-09-20 03:30:00,64.6,60.4,30.09,West,270,0.0,0.0,86,0.00,,,0.06,WUHU216HW,2013-09-20 07:30:00,
2013-09-20 03:35:00,64.6,60.4,30.09,West,270,0.0,0.0,86,0.00,,,0.06,WUHU216HW,2013-09-20 07:35:00,
2013-09-20 04:00:00,64.3,60.0,30.09,West,270,0.0,0.0,86,0.00,,,0.06,WUHU216HW,2013-09-20 08:00:00,
2013-09-20 04:05:00,64.3,60.0,30.09,West,270,0.0,0.0,86,0.00,,,0.06,WUHU216HW,2013-09-20 08:05:00,
2013-09-20 04:30:00,64.3,60.4,30.09,West,270,0.0,0.0,87,0.00,,,0.06,WUHU216HW,2013-09-20 08:30:00,
2013-09-20 04:35:00,64.3,60.4,30.09,West,270,0.0,0.0,87,0.00,,,0.06,WUHU216HW,2013-09-20 08:35:00,
2013-09-20 05:00:00,64.1,60.2,30.09,West,270,0.0,0.0,87,0.00,,,0.06,WUHU216HW,2013-09-20 09:00:00,
2013-09-20 05:05:00,64.1,60.2,30.09,West,270,0.0,0.0,87,0.00,,,0.06,WUHU216HW,2013-09-20 09:05:00,
2013-09-20 05:30:00,63.9,60.0,30.09,NW,315,0.0,0.0,87,0.01,,,0.06,WUHU216HW,2013-09-20 09:30:00,
2013-09-20 05:35:00,63.9,60.0,30.09,NW,315,0.0,0.0,87,0.01,,,0.06,WUHU216HW,2013-09-20 09:35:00,
2013-09-20 06:00:00,63.5,59.7,30.10,SSE,158,0.0,0.0,87,0.05,,,0.06,WUHU216HW,2013-09-20 10:00:00,
2013-09-20 06:05:00,63.5,59.7,30.10,SSE,158,0.0,0.0,87,0.05,,,0.06,WUHU216HW,2013-09-20 10:05:00,
2013-09-20 06:30:00,63.4,59.5,30.10,ESE,113,0.0,0.0,87,0.10,,,0.11,WUHU216HW,2013-09-20 10:30:00,
2013-09-20 06:35:00,63.4,59.5,30.10,ESE,113,0.0,0.0,87,0.10,,,0.11,WUHU216HW,2013-09-20 10:35:00,
2013-09-20 07:00:00,63.0,59.1,30.10,SSE,158,0.0,0.0,87,0.08,,,0.17,WUHU216HW,2013-09-20 11:00:00,
2013-09-20 07:05:00,63.0,59.1,30.10,SSE,158,0.0,0.0,87,0.08,,,0.17,WUHU216HW,2013-09-20 11:05:00,
2013-09-20 07:30:00,62.6,59.0,30.10,North,0,0.0,0.0,88,0.02,,,0.19,WUHU216HW,2013-09-20 11:30:00,
2013-09-20 07:35:00,62.6,59.0,30.10,North,0,0.0,0.0,88,0.02,,,0.19,WUHU216HW,2013-09-20 11:35:00,
2013-09-20 08:00:00,62.6,59.4,30.10,SW,225,0.0,0.0,89,0.00,,,0.19,WUHU216HW,2013-09-20 12:00:00,
2013-09-20 08:05:00,62.6,59.4,30.10,SW,225,0.0,0.0,89,0.00,,,0.19,WUHU216HW,2013-09-20 12:05:00,
2013-09-20 08:30:00,62.8,59.6,30.10,SE,135,0.0,0.0,89,0.01,,,0.19,WUHU216HW,2013-09-20 12:30:00,
2013-09-20 08:35:00,62.8,59.6,30.10,SE,135,0.0,0.0,89,0.01,,,0.19,WUHU216HW,2013-09-20 12:35:00,
2013-09-20 09:00:00,63.2,59.9,30.11,SE,135,0.2,0.2,89,0.01,,,0.20,WUHU216HW,2013-09-20 13:00:00,
2013-09-20 09:05:00,63.2,59.9,30.11,SE,135,0.2,0.2,89,0.01,,,0.20,WUHU216HW,2013-09-20 13:05:00,
2013-09-20 09:30:00,63.7,60.5,30.10,SSW,203,1.6,1.6,89,0.00,,,0.20,WUHU216HW,2013-09-20 13:30:00,
2013-09-20 09:35:00,63.7,60.5,30.10,SSW,203,1.6,1.6,89,0.00,,,0.20,WUHU216HW,2013-09-20 13:35:00,
2013-09-20 10:00:00,64.3,61.0,30.10,SSE,158,0.9,0.9,89,0.00,,,0.20,WUHU216HW,2013-09-20 14:00:00,
2013-09-20 10:05:00,64.3,61.0,30.10,SSE,158,0.9,0.9,89,0.00,,,0.20,WUHU216HW,2013-09-20 14:05:00,
2013-09-20 10:30:00,64.8,61.6,30.10,WSW,248,0.2,0.2,89,0.00,,,0.20,WUHU216HW,2013-09-20 14:30:00,
2013-09-20 10:35:00,64.8,61.6,30.10,WSW,248,0.2,0.2,89,0.00,,,0.20,WUHU216HW,2013-09-20 14:35:00,
2013-09-20 11:00:00,65.5,62.2,30.10,South,180,0.4,0.4,89,0.00,,,0.20,WUHU216HW,2013-09-20 15:00:00,
2013-09-20 11:05:00,65.5,62.2,30.10,South,180,0.4,0.4,89,0.00,,,0.20,WUHU216HW,2013-09-20 15:05:00,
2013-09-20 11:30:00,66.2,63.2,30.10,SW,225,0.0,0.0,90,0.00,,,0.20,WUHU216HW,2013-09-20 15:30:00,
2013-09-20 11:35:00,66.2,63.2,30.10,SW,225,0.0,0.0,90,0.00,,,0.20,WUHU216HW,2013-09-20 15:35:00,
2013-09-20 12:00:00,67.0,63.9,30.08,SE,135,1.3,1.3,90,0.00,,,0.20,WUHU216HW,2013-09-20 16:00:00,
2013-09-20 12:05:00,67.0,63.9,30.08,SE,135,1.3,1.3,90,0.00,,,0.20,WUHU216HW,2013-09-20 16:05:00,
2013-09-20 12:30:00,67.9,64.4,30.08,SSE,158,1.1,1.1,89,0.00,,,0.20,WUHU216HW,2013-09-20 16:30:00,
2013-09-20 12:35:00,67.9,64.4,30.08,SSE,158,1.1,1.1,89,0.00,,,0.20,WUHU216HW,2013-09-20 16:35:00,
2013-09-20 13:00:00,68.6,64.9,30.08,ESE,113,0.0,0.0,88,0.00,,,0.20,WUHU216HW,2013-09-20 17:00:00,
2013-09-20 13:05:00,68.6,64.9,30.08,ESE,113,0.0,0.0,88,0.00,,,0.20,WUHU216HW,2013-09-20 17:05:00,
2013-09-20 13:30:00,68.9,65.3,30.08,South,180,0.4,0.4,88,0.00,,,0.20,WUHU216HW,2013-09-20 17:30:00,
2013-09-20 13:35:00,68.9,65.3,30.08,South,180,0.4,0.4,88,0.00,,,0.20,WUHU216HW,2013-09-20 17:35:00,
2013-09-20 14:00:00,69.3,65.3,30.07,SE,135,0.0,0.0,87,0.00,,,0.20,WUHU216HW,2013-09-20 18:00:00,
2013-09-20 14:05:00,69.3,65.3,30.07,SE,135,0.0,0.0,87,0.00,,,0.20,WUHU216HW,2013-09-20 18:05:00,
2013-09-20 14:30:00,69.1,65.1,30.07,West,270,0.0,0.0,87,0.00,,,0.20,WUHU216HW,2013-09-20 18:30:00,
2013-09-20 14:35:00,69.1,65.1,30.07,West,270,0.0,0.0,87,0.00,,,0.20,WUHU216HW,2013-09-20 18:35:00,
2013-09-20 15:00:00,69.1,65.1,30.05,SSE,158,0.4,0.4,87,0.00,,,0.20,WUHU216HW,2013-09-20 19:00:00,
2013-09-20 15:05:00,69.1,65.1,30.05,SSE,158,0.4,0.4,87,0.00,,,0.20,WUHU216HW,2013-09-20 19:05:00,
2013-09-20 15:30:00,69.3,65.3,30.04,SE,135,0.2,0.2,87,0.00,,,0.20,WUHU216HW,2013-09-20 19:30:00,
2013-09-20 15:35:00,69.3,65.3,30.04,SE,135,0.2,0.2,87,0.00,,,0.20,WUHU216HW,2013-09-20 19:35:00,
2013-09-20 16:00:00,69.1,65.1,30.03,ESE,113,0.0,0.0,87,0.00,,,0.20,WUHU216HW,2013-09-20 20:00:00,
2013-09-20 16:05:00,69.1,65.1,30.03,ESE,113,0.0,0.0,87,0.00,,,0.20,WUHU216HW,2013-09-20 20:05:00,
2013-09-20 16:30:00,68.9,64.9,30.02,SSE,158,0.0,0.0,87,0.00,,,0.20,WUHU216HW,2013-09-20 20:30:00,
2013-09-20 16:35:00,68.9,64.9,30.02,SSE,158,0.0,0.0,87,0.00,,,0.20,WUHU216HW,2013-09-20 20:35:00,
2013-09-20 17:00:00,69.1,65.1,30.02,SSE,158,0.4,0.4,87,0.00,,,0.20,WUHU216HW,2013-09-20 21:00:00,
2013-09-20 17:05:00,69.1,65.1,30.02,SSE,158,0.4,0.4,87,0.00,,,0.20,WUHU216HW,2013-09-20 21:05:00,
2013-09-20 17:30:00,69.1,65.1,30.02,SE,135,1.1,1.1,87,0.00,,,0.20,WUHU216HW,2013-09-20 21:30:00,
2013-09-20 17:35:00,69.1,65.1,30.02,SE,135,1.1,1.1,87,0.00,,,0.20,WUHU216HW,2013-09-20 21:35:00,
2013-09-20 18:00:00,68.8,64.7,30.02,SSW,203,0.0,0.0,87,0.00,,,0.20,WUHU216HW,2013-09-20 22:00:00,
2013-09-20 18:05:00,68.8,64.7,30.02,SSW,203,0.0,0.0,87,0.00,,,0.20,WUHU216HW,2013-09-20 22:05:00,
2013-09-20 18:30:00,68.8,64.7,30.02,SE,135,0.0,0.0,87,0.00,,,0.20,WUHU216HW,2013-09-20 22:30:00,
2013-09-20 18:35:00,68.8,64.7,30.02,SE,135,0.0,0.0,87,0.00,,,0.20,WUHU216HW,2013-09-20 22:35:00,
2013-09-20 19:00:00,68.6,64.5,30.02,SE,135,0.0,0.0,87,0.00,,,0.20,WUHU216HW,2013-09-20 23:00:00,
2013-09-20 19:05:00,68.6,64.5,30.02,SE,135,0.0,0.0,87,0.00,,,0.20,WUHU216HW,2013-09-20 23:05:00,
2013-09-20 19:30:00,68.2,64.5,30.02,East,90,0.0,0.0,88,0.00,,,0.20,WUHU216HW,2013-09-20 23:30:00,
2013-09-20 19:35:00,68.2,64.5,30.02,East,90,0.0,0.0,88,0.00,,,0.20,WUHU216HW,2013-09-20 23:35:00,
2013-09-20 20:00:00,68.2,64.5,30.02,SE,135,0.0,0.0,88,0.00,,,0.20,WUHU216HW,2013-09-21 00:00:00,
2013-09-20 20:05:00,68.2,64.5,30.02,SE,135,0.0,0.0,88,0.00,,,0.20,WUHU216HW,2013-09-21 00:05:00,
2013-09-20 20:30:00,68.0,64.4,30.02,SSE,158,0.0,0.0,88,0.00,,,0.20,WUHU216HW,2013-09-21 00:30:00,
2013-09-20 20:35:00,68.0,64.4,30.02,SSE,158,0.0,0.0,88,0.00,,,0.20,WUHU216HW,2013-09-21 00:35:00,
2013-09-20 21:00:00,67.7,64.0,30.02,SSW,203,0.0,0.0,88,0.00,,,0.20,WUHU216HW,2013-09-21 01:00:00,
2013-09-20 21:05:00,67.7,64.0,30.02,SSW,203,0.0,0.0,88,0.00,,,0.20,WUHU216HW,2013-09-21 01:05:00,
2013-09-20 21:30:00,67.5,63.8,30.02,SSE,158,0.0,0.0,88,0.00,,,0.20,WUHU216HW,2013-09-21 01:30:00,
2013-09-20 21:35:00,67.5,63.8,30.02,SSE,158,0.0,0.0,88,0.00,,,0.20,WUHU216HW,2013-09-21 01:35:00,
2013-09-20 22:00:00,67.3,63.6,30.02,SSE,158,0.0,0.0,88,0.00,,,0.20,WUHU216HW,2013-09-21 02:00:00,
2013-09-20 22:05:00,67.3,63.6,30.02,SSE,158,0.0,0.0,88,0.00,,,0.20,WUHU216HW,2013-09-21 02:05:00,
2013-09-20 22:30:00,67.3,63.9,30.01,SSE,158,0.0,0.0,89,0.00,,,0.20,WUHU216HW,2013-09-21 02:30:00,
2013-09-20 22:35:00,67.3,63.9,30.01,SSE,158,0.0,0.0,89,0.00,,,0.20,WUHU216HW,2013-09-21 02:35:00,
2013-09-20 23:00:00,67.1,63.7,30.00,SSE,158,0.0,0.0,89,0.00,,,0.20,WUHU216HW,2013-09-21 03:00:00,
2013-09-20 23:05:00,67.1,63.7,30.00,SSE,158,0.0,0.0,89,0.00,,,0.20,WUHU216HW,2013-09-21 03:05:00,
2013-09-20 23:30:00,67.0,63.5,30.00,SSE,158,0.0,0.0,89,0.00,,,0.20,WUHU216HW,2013-09-21 03:30:00,
2013-09-20 23:35:00,67.0,63.5,30.00,SSE,158,0.0,0.0,89,0.00,,,0.20,WUHU216HW,2013-09-21 03:35:00,